Location: Unspecified
(0.0000°N, 0.0000°E)
Time: 11:42:37
(UTC+00:00)

S-56A Canister/Altair - Pass Details

Date: 26 November 2019
Orbit: 633 x 2499 km, 38.9° (Epoch: 07 December)

Event Time Altitude Azimuth Distance (km) Brightness Sun altitude
Rises 13:17:28 0° 256° (WSW) 6,122 12.5 59.6°
Reaches altitude 10° 13:22:19 10° 267° (W) 5,160 12.3 58.7°
Maximum altitude 13:34:20 29° 320° (NW) 3,657 11.3 56.5°
Drops below altitude 10° 13:44:54 10° 15° (NNE) 4,473 11.3 54.4°
Sets 13:48:49 0° 26° (NNE) 5,208 11.5 53.7°
